This is the latest recevied weather packets stored in our database for station/object WX5II-15. If no packets are shown the sender has not sent any weather packets the latest 10 day(s).
| Time | Temp. | Humidity | Pressure | Rain* | Wind** | Luminosity | Snow |
|---|---|---|---|---|---|---|---|
| 1788021433 | 33.33° C | 55% | 1009.4 hPa | 0 mm | - | - | - |
| 1788020833 | 33.89° C | 53% | 1009.4 hPa | 0 mm | - | - | - |
| 1788020232 | 33.33° C | 55% | 1009.4 hPa | 0 mm | - | - | - |
| 1788019631 | 32.78° C | 57% | 1009.4 hPa | 0 mm | - | - | - |
| 1788018430 | 32.22° C | 60% | 1009.4 hPa | 0 mm | - | - | - |
| 1788017830 | 31.67° C | 60% | 1009.4 hPa | 0 mm | - | - | - |
| 1788017229 | 31.67° C | 62% | 1009.4 hPa | 0 mm | - | - | - |
| 1788016629 | 31.67° C | 63% | 1009.4 hPa | 0 mm | - | - | - |
| 1788016028 | 31.11° C | 64% | 1009.1 hPa | 0 mm | - | - | - |
| 1788015428 | 31.11° C | 68% | 1009.1 hPa | 0 mm | - | - | - |
| 1788014827 | 30° C | 69% | 1009.1 hPa | 0 mm | - | - | - |
| 1788014226 | 30.56° C | 70% | 1009.1 hPa | 0 mm | - | - | - |
| 1788013626 | 30.56° C | 70% | 1009.1 hPa | 0 mm | - | - | - |
| 1788012424 | 30° C | 72% | 1009.1 hPa | 0 mm | - | - | - |
| 1788011823 | 29.44° C | 73% | 1008.8 hPa | 0 mm | - | - | - |
| 1788011223 | 28.89° C | 76% | 1008.8 hPa | 0 mm | - | - | - |
| 1788010622 | 27.78° C | 77% | 1008.4 hPa | 0 mm | - | - | - |
| 1788010022 | 27.78° C | 79% | 1008.4 hPa | 0 mm | - | - | - |
| 1788010021 | 27.78° C | 79% | 1008.4 hPa | 0 mm | - | - | - |
| 1788009421 | 27.22° C | 81% | 1008.4 hPa | 0 mm | - | - | - |
| 1788008820 | 26.11° C | 83% | 1008.4 hPa | 0 mm | - | - | - |
| 1788008221 | 25.56° C | 83% | 1008.4 hPa | 0 mm | - | - | - |
| 1788007619 | 25° C | 84% | 1008.4 hPa | 0 mm | - | - | - |
| 1788007019 | 24.44° C | 84% | 1008.1 hPa | 0 mm | - | - | - |
| 1788006418 | 24.44° C | 84% | 1008.1 hPa | 0 mm | - | - | - |
* Rain latest hour (hover to see other rain measurements)
** Current wind speed in m/s (hover to see current wind gust speed)